owner,sensor,date,latitude,longitude,vertical_datum,direction_of_sea_water_velocity,sea_water_speed,upward_sea_water_velocity,qcFlag 
TABS,ioos:station:wmo:42050:1,2007-09-01T00:00:00Z,28.8425,-94.2433,2.0,242.011992,29.0017965,-99999.0,'11111222,11111222,99999999' 
TABS,ioos:station:wmo:42050:1,2007-09-01T00:30:00Z,28.8425,-94.2433,2.0,239.0056638,26.0026191,-99999.0,'11111222,11111222,99999999' 
TABS,ioos:station:wmo:42050:1,2007-09-01T01:00:00Z,28.8425,-94.2433,2.0,220.9970358,8.002755775,-99999.0,'11133222,11111222,99999999' 
TABS,ioos:station:wmo:42050:1,2007-09-01T01:30:00Z,28.8425,-94.2433,2.0,236.0050404,24.00221656,-99999.0,'11111222,11111222,99999999' 
TABS,ioos:station:wmo:42050:1,2007-09-01T02:00:00Z,28.8425,-94.2433,2.0,256.9888788,7.995254843,-99999.0,'11133222,11111222,99999999' 
TABS,ioos:station:wmo:42050:1,2007-09-01T02:30:00Z,28.8425,-94.2433,2.0,231.0012982,22.9938644,-99999.0,'11111222,11111222,99999999' 
TABS,ioos:station:wmo:42050:1,2007-09-01T03:00:00Z,28.8425,-94.2433,2.0,234.0083994,20.99846899,-99999.0,'11111222,11111222,99999999' 
TABS,ioos:station:wmo:42050:1,2007-09-01T03:30:00Z,28.8425,-94.2433,2.0,235.9824039,16.99906468,-99999.0,'11111222,11111222,99999999' 
TABS,ioos:station:wmo:42050:1,2007-09-01T04:00:00Z,28.8425,-94.2433,2.0,239.9955506,16.99789399,-99999.0,'11111222,11111222,99999999' 
TABS,ioos:station:wmo:42050:1,2007-09-01T04:30:00Z,28.8425,-94.2433,2.0,252.0175939,16.00162492,-99999.0,'11111222,11111222,99999999' 
TABS,ioos:station:wmo:42050:1,2007-09-01T05:00:00Z,28.8425,-94.2433,2.0,321.0022343,8.994203689,-99999.0,'11133222,11111222,99999999' 
TABS,ioos:station:wmo:42050:1,2007-09-01T05:30:00Z,28.8425,-94.2433,2.0,247.9747847,9.999769997,-99999.0,'11133222,11111222,99999999' 
TABS,ioos:station:wmo:42050:1,2007-09-01T06:00:00Z,28.8425,-94.2433,2.0,256.9888788,7.995254843,-99999.0,'11133222,11111222,99999999' 
TABS,ioos:station:wmo:42050:1,2007-09-01T06:30:00Z,28.8425,-94.2433,2.0,293.0484624,6.998657014,-99999.0,'11133222,11111222,99999999' 
TABS,ioos:station:wmo:42050:1,2007-09-01T07:00:00Z,28.8425,-94.2433,2.0,270.0004209,7.0,-99999.0,'11133222,11111222,99999999' 
TABS,ioos:station:wmo:42050:1,2007-09-01T07:30:00Z,28.8425,-94.2433,2.0,256.9888788,7.995254843,-99999.0,'11133222,11111222,99999999' 
TABS,ioos:station:wmo:42050:1,2007-09-01T08:00:00Z,28.8425,-94.2433,2.0,256.9888788,7.995254843,-99999.0,'11133222,11111222,99999999' 
TABS,ioos:station:wmo:42050:1,2007-09-01T08:30:00Z,28.8425,-94.2433,2.0,270.0004209,5.0,-99999.0,'11133222,11111222,99999999' 
TABS,ioos:station:wmo:42050:1,2007-09-01T09:00:00Z,28.8425,-94.2433,2.0,256.9888788,7.995254843,-99999.0,'11133222,11111222,99999999' 
TABS,ioos:station:wmo:42050:1,2007-09-01T09:30:00Z,28.8425,-94.2433,2.0,67.97520557,9.999769997,-99999.0,'11133222,11111222,99999999' 
TABS,ioos:station:wmo:42050:1,2007-09-01T10:00:00Z,28.8425,-94.2433,2.0,270.0004209,11.0,-99999.0,'11111222,11111222,99999999' 
TABS,ioos:station:wmo:42050:1,2007-09-01T10:30:00Z,28.8425,-94.2433,2.0,284.021188,8.998072016,-99999.0,'11133222,11111222,99999999' 
TABS,ioos:station:wmo:42050:1,2007-09-01T11:00:00Z,28.8425,-94.2433,2.0,318.0397081,8.001562347,-99999.0,'11133222,11111222,99999999' 
TABS,ioos:station:wmo:42050:1,2007-09-01T11:30:00Z,28.8425,-94.2433,2.0,236.9457407,3.996861269,-99999.0,'11133222,11111222,99999999' 
TABS,ioos:station:wmo:42050:1,2007-09-01T12:00:00Z,28.8425,-94.2433,2.0,244.9728502,6.996942189,-99999.0,'11133222,11111222,99999999' 
TABS,ioos:station:wmo:42050:1,2007-09-01T12:30:00Z,28.8425,-94.2433,2.0,224.9996843,7.000357134,-99999.0,'11133222,11111222,99999999' 
TABS,ioos:station:wmo:42050:1,2007-09-02T03:00:00Z,28.8425,-94.2433,2.0,199.9746922,6.001008249,-99999.0,'11133222,11111222,99999999' 
TABS,ioos:station:wmo:42050:1,2007-09-02T03:30:00Z,28.8425,-94.2433,2.0,179.9997895,6.0,-99999.0,'11133222,11111222,99999999' 
TABS,ioos:station:wmo:42050:1,2007-09-02T04:00:00Z,28.8425,-94.2433,2.0,179.9997895,6.0,-99999.0,'11133222,11111222,99999999' 
TABS,ioos:station:wmo:42050:1,2007-09-02T04:30:00Z,28.8425,-94.2433,2.0,146.9459511,3.996861269,-99999.0,'11133222,11111222,99999999' 
TABS,ioos:station:wmo:42050:1,2007-09-02T05:00:00Z,28.8425,-94.2433,2.0,154.8444759,1.999649969,-99999.0,'11133222,11111222,99999999' 
TABS,ioos:station:wmo:42050:1,2007-09-02T05:30:00Z,28.8425,-94.2433,2.0,224.9996843,1.004091629,-99999.0,'11133222,11111222,99999999' 
TABS,ioos:station:wmo:42050:1,2007-09-02T06:00:00Z,28.8425,-94.2433,2.0,270.0004209,1.0,-99999.0,'11133222,11111222,99999999' 
TABS,ioos:station:wmo:42050:1,2007-09-02T06:30:00Z,28.8425,-94.2433,2.0,334.8448968,1.999649969,-99999.0,'11133222,11111222,99999999' 
TABS,ioos:station:wmo:42050:1,2007-09-02T07:00:00Z,28.8425,-94.2433,2.0,0.000210459,4.0,-99999.0,'11133222,11111222,99999999' 
TABS,ioos:station:wmo:42050:1,2007-09-02T07:30:00Z,28.8425,-94.2433,2.0,15.07930917,3.997649309,-99999.0,'11133222,11111222,99999999' 
TABS,ioos:station:wmo:42050:1,2007-09-02T08:00:00Z,28.8425,-94.2433,2.0,39.04765971,6.000333324,-99999.0,'11133222,11111222,99999999' 
TABS,ioos:station:wmo:42050:1,2007-09-02T08:30:00Z,28.8425,-94.2433,2.0,31.99539949,6.00170809,-99999.0,'11133222,11111222,99999999' 
TABS,ioos:station:wmo:42050:1,2007-09-02T09:00:00Z,28.8425,-94.2433,2.0,45.00010523,7.000357134,-99999.0,'11133222,11111222,99999999' 
TABS,ioos:station:wmo:42050:1,2007-09-02T09:30:00Z,28.8425,-94.2433,2.0,39.04765971,6.000333324,-99999.0,'11133222,11111222,99999999' 
TABS,ioos:station:wmo:42050:1,2007-09-02T10:00:00Z,28.8425,-94.2433,2.0,45.00010523,5.996265504,-99999.0,'11133222,11111222,99999999' 
TABS,ioos:station:wmo:42050:1,2007-09-02T10:30:00Z,28.8425,-94.2433,2.0,45.00010523,7.000357134,-99999.0,'11133222,11111222,99999999' 
TABS,ioos:station:wmo:42050:1,2007-09-02T11:00:00Z,28.8425,-94.2433,2.0,67.98594402,8.003524224,-99999.0,'11133222,11111222,99999999' 
TABS,ioos:station:wmo:42050:1,2007-09-02T11:30:00Z,28.8425,-94.2433,2.0,56.94616161,3.996861269,-99999.0,'11133222,11111222,99999999' 
TABS,ioos:station:wmo:42050:1,2007-09-02T12:00:00Z,28.8425,-94.2433,2.0,90.0,7.0,-99999.0,'11133222,11111222,99999999' 
TABS,ioos:station:wmo:42050:1,2007-09-02T12:30:00Z,28.8425,-94.2433,2.0,107.0364652,6.997042232,-99999.0,'11133222,11111222,99999999' 
TABS,ioos:station:wmo:42050:1,2007-09-02T13:00:00Z,28.8425,-94.2433,2.0,107.0364652,6.997042232,-99999.0,'11133222,11111222,99999999' 
TABS,ioos:station:wmo:42050:1,2007-09-02T13:30:00Z,28.8425,-94.2433,2.0,120.0006576,9.999779998,-99999.0,'11133222,11111222,99999999' 
TABS,ioos:station:wmo:42050:1,2007-09-02T14:00:00Z,28.8425,-94.2433,2.0,111.0031736,11.99708298,-99999.0,'11111222,11111222,99999999' 
TABS,ioos:station:wmo:42050:1,2007-09-02T14:30:00Z,28.8425,-94.2433,2.0,134.9998948,12.99662264,-99999.0,'11111222,11111222,99999999' 
TABS,ioos:station:wmo:42050:1,2007-09-02T15:00:00Z,28.8425,-94.2433,2.0,143.0065343,12.99603016,-99999.0,'11111222,11111222,99999999' 
TABS,ioos:station:wmo:42050:1,2007-09-02T15:30:00Z,28.8425,-94.2433,2.0,144.0055897,14.00363524,-99999.0,'11111222,11111222,99999999' 
TABS,ioos:station:wmo:42050:1,2007-09-02T16:00:00Z,28.8425,-94.2433,2.0,147.0137547,13.99614233,-99999.0,'11111222,11111222,99999999' 
TABS,ioos:station:wmo:42050:1,2007-09-02T16:30:00Z,28.8425,-94.2433,2.0,155.0245133,4.997299271,-99999.0,'11133222,11111222,99999999' 
TABS,ioos:station:wmo:42050:1,2007-09-02T17:00:00Z,28.8425,-94.2433,2.0,158.0055171,15.99403014,-99999.0,'11111222,11111222,99999999' 
TABS,ioos:station:wmo:42050:1,2007-09-02T17:30:00Z,28.8425,-94.2433,2.0,156.0133993,16.99791164,-99999.0,'11111222,11111222,99999999' 
TABS,ioos:station:wmo:42050:1,2007-09-02T18:00:00Z,28.8425,-94.2433,2.0,152.0155153,13.00001538,-99999.0,'11111222,11111222,99999999' 
TABS,ioos:station:wmo:42050:1,2007-09-02T18:30:00Z,28.8425,-94.2433,2.0,141.0088867,9.996849504,-99999.0,'11133222,11111222,99999999' 
TABS,ioos:station:wmo:42050:1,2007-09-02T19:00:00Z,28.8425,-94.2433,2.0,152.0155153,13.00001538,-99999.0,'11111222,11111222,99999999' 
TABS,ioos:station:wmo:42050:1,2007-09-02T19:30:00Z,28.8425,-94.2433,2.0,134.0004964,15.00001667,-99999.0,'11111222,11111222,99999999' 
TABS,ioos:station:wmo:42050:1,2007-09-02T20:00:00Z,28.8425,-94.2433,2.0,132.0067698,13.00021538,-99999.0,'11111222,11111222,99999999' 
TABS,ioos:station:wmo:42050:1,2007-09-02T20:30:00Z,28.8425,-94.2433,2.0,132.0067698,13.00021538,-99999.0,'11111222,11111222,99999999' 
TABS,ioos:station:wmo:42050:1,2007-09-02T21:00:00Z,28.8425,-94.2433,2.0,134.9998948,11.00258152,-99999.0,'11111222,11111222,99999999' 
TABS,ioos:station:wmo:42050:1,2007-09-02T21:30:00Z,28.8425,-94.2433,2.0,132.0142246,10.99629483,-99999.0,'11111222,11111222,99999999' 
TABS,ioos:station:wmo:42050:1,2007-09-02T22:00:00Z,28.8425,-94.2433,2.0,139.9579245,8.999788886,-99999.0,'11133222,11111222,99999999' 
TABS,ioos:station:wmo:42050:1,2007-09-02T22:30:00Z,28.8425,-94.2433,2.0,146.0095489,8.997360724,-99999.0,'11133222,11111222,99999999' 
TABS,ioos:station:wmo:42050:1,2007-09-02T23:00:00Z,28.8425,-94.2433,2.0,159.028128,5.001299831,-99999.0,'11133222,11111222,99999999' 
TABS,ioos:station:wmo:42050:1,2007-09-02T23:30:00Z,28.8425,-94.2433,2.0,169.9719042,4.996328652,-99999.0,'11133222,11111222,99999999' 
TABS,ioos:station:wmo:42050:1,2007-09-03T00:00:00Z,28.8425,-94.2433,2.0,218.0153611,5.0009999,-99999.0,'11133222,11111222,99999999' 
TABS,ioos:station:wmo:42050:1,2007-09-03T00:30:00Z,28.8425,-94.2433,2.0,224.9996843,2.998132752,-99999.0,'11133222,11111222,99999999' 
TABS,ioos:station:wmo:42050:1,2007-09-03T01:00:00Z,28.8425,-94.2433,2.0,224.9996843,2.998132752,-99999.0,'11133222,11111222,99999999' 
TABS,ioos:station:wmo:42050:1,2007-09-03T01:30:00Z,28.8425,-94.2433,2.0,237.2644294,0.998599019,-99999.0,'11133222,11111222,99999999' 
TABS,ioos:station:wmo:42050:1,2007-09-03T02:00:00Z,28.8425,-94.2433,2.0,50.03304353,4.997299271,-99999.0,'11133222,11111222,99999999' 
TABS,ioos:station:wmo:42050:1,2007-09-03T02:30:00Z,28.8425,-94.2433,2.0,245.034611,4.004122875,-99999.0,'11133222,11111222,99999999' 
TABS,ioos:station:wmo:42050:1,2007-09-03T03:00:00Z,28.8425,-94.2433,2.0,224.9996843,4.002224382,-99999.0,'11133222,11111222,99999999' 
TABS,ioos:station:wmo:42050:1,2007-09-03T03:30:00Z,28.8425,-94.2433,2.0,218.0153611,5.0009999,-99999.0,'11133222,11111222,99999999' 
TABS,ioos:station:wmo:42050:1,2007-09-03T04:00:00Z,28.8425,-94.2433,2.0,200.0643741,3.002215848,-99999.0,'11133222,11111222,99999999' 
TABS,ioos:station:wmo:42050:1,2007-09-03T04:30:00Z,28.8425,-94.2433,2.0,207.0774776,1.999124809,-99999.0,'11133222,11111222,99999999' 
TABS,ioos:station:wmo:42050:1,2007-09-03T05:00:00Z,28.8425,-94.2433,2.0,207.0774776,1.999124809,-99999.0,'11133222,11111222,99999999' 
TABS,ioos:station:wmo:42050:1,2007-09-03T05:30:00Z,28.8425,-94.2433,2.0,214.9213258,4.000312488,-99999.0,'11133222,11111222,99999999' 
TABS,ioos:station:wmo:42050:1,2007-09-03T06:00:00Z,28.8425,-94.2433,2.0,245.034611,4.004122875,-99999.0,'11133222,11111222,99999999' 
TABS,ioos:station:wmo:42050:1,2007-09-03T06:30:00Z,28.8425,-94.2433,2.0,297.078109,3.998249617,-99999.0,'11133222,11111222,99999999' 
TABS,ioos:station:wmo:42050:1,2007-09-03T07:00:00Z,28.8425,-94.2433,2.0,290.0650055,3.002215848,-99999.0,'11133222,11111222,99999999' 
TABS,ioos:station:wmo:42050:1,2007-09-03T07:30:00Z,28.8425,-94.2433,2.0,342.0482914,6.002216257,-99999.0,'11133222,11111222,99999999' 
TABS,ioos:station:wmo:42050:1,2007-09-03T08:00:00Z,28.8425,-94.2433,2.0,353.9762315,8.004198898,-99999.0,'11133222,11111222,99999999' 
TABS,ioos:station:wmo:42050:1,2007-09-03T08:30:00Z,28.8425,-94.2433,2.0,348.0033392,8.996493761,-99999.0,'11133222,11111222,99999999' 
TABS,ioos:station:wmo:42050:1,2007-09-03T09:00:00Z,28.8425,-94.2433,2.0,8.984272929,12.99948076,-99999.0,'11111222,11111222,99999999' 
TABS,ioos:station:wmo:42050:1,2007-09-03T09:30:00Z,28.8425,-94.2433,2.0,11.00112188,12.00052082,-99999.0,'11111222,11111222,99999999' 
TABS,ioos:station:wmo:42050:1,2007-09-03T10:00:00Z,28.8425,-94.2433,2.0,21.00338406,11.99708298,-99999.0,'11111222,11111222,99999999' 
TABS,ioos:station:wmo:42050:1,2007-09-03T10:30:00Z,28.8425,-94.2433,2.0,21.00338406,11.99708298,-99999.0,'11111222,11111222,99999999' 
TABS,ioos:station:wmo:42050:1,2007-09-03T11:00:00Z,28.8425,-94.2433,2.0,20.00501846,9.003221646,-99999.0,'11133222,11111222,99999999' 
TABS,ioos:station:wmo:42050:1,2007-09-03T11:30:00Z,28.8425,-94.2433,2.0,23.96991534,7.9999125,-99999.0,'11133222,11111222,99999999' 
TABS,ioos:station:wmo:42050:1,2007-09-03T12:00:00Z,28.8425,-94.2433,2.0,20.99411251,16.99838228,-99999.0,'11111222,11111222,99999999' 
TABS,ioos:station:wmo:42050:1,2007-09-03T12:30:00Z,28.8425,-94.2433,2.0,21.02121591,14.99814655,-99999.0,'11111222,11111222,99999999' 
TABS,ioos:station:wmo:42050:1,2007-09-03T13:00:00Z,28.8425,-94.2433,2.0,33.00158278,15.00017667,-99999.0,'11111222,11111222,99999999' 
TABS,ioos:station:wmo:42050:1,2007-09-03T13:30:00Z,28.8425,-94.2433,2.0,38.00792523,13.99876066,-99999.0,'11111222,11111222,99999999' 
TABS,ioos:station:wmo:42050:1,2007-09-03T14:00:00Z,28.8425,-94.2433,2.0,51.00152336,13.99966071,-99999.0,'11111222,11111222,99999999' 
TABS,ioos:station:wmo:42050:1,2007-09-03T14:30:00Z,28.8425,-94.2433,2.0,56.00546135,12.00110828,-99999.0,'11111222,11111222,99999999' 
TABS,ioos:station:wmo:42050:1,2007-09-03T15:00:00Z,28.8425,-94.2433,2.0,53.00674477,12.99603016,-99999.0,'11111222,11111222,99999999' 
TABS,ioos:station:wmo:42050:1,2007-09-03T15:30:00Z,28.8425,-94.2433,2.0,66.01678819,13.9985785,-99999.0,'11111222,11111222,99999999' 
TABS,ioos:station:wmo:42050:1,2007-09-03T16:00:00Z,28.8425,-94.2433,2.0,80.98519038,11.99820403,-99999.0,'11111222,11111222,99999999' 
TABS,ioos:station:wmo:42050:1,2007-09-03T16:30:00Z,28.8425,-94.2433,2.0,78.01605865,13.00339956,-99999.0,'11111222,11111222,99999999' 
TABS,ioos:station:wmo:42050:1,2007-09-03T17:00:00Z,28.8425,-94.2433,2.0,80.98519038,11.99820403,-99999.0,'11111222,11111222,99999999' 
TABS,ioos:station:wmo:42050:1,2007-09-03T17:30:00Z,28.8425,-94.2433,2.0,87.00112063,12.99779981,-99999.0,'11111222,11111222,99999999' 
TABS,ioos:station:wmo:42050:1,2007-09-03T18:00:00Z,28.8425,-94.2433,2.0,90.0,13.0,-99999.0,'11111222,11111222,99999999' 
TABS,ioos:station:wmo:42050:1,2007-09-03T18:30:00Z,28.8425,-94.2433,2.0,85.98583369,11.99943749,-99999.0,'11111222,11111222,99999999' 
TABS,ioos:station:wmo:42050:1,2007-09-03T19:00:00Z,28.8425,-94.2433,2.0,82.98663813,14.00478847,-99999.0,'11111222,11111222,99999999' 
TABS,ioos:station:wmo:42050:1,2007-09-03T19:30:00Z,28.8425,-94.2433,2.0,82.98663813,14.00478847,-99999.0,'11111222,11111222,99999999' 
TABS,ioos:station:wmo:42050:1,2007-09-03T20:00:00Z,28.8425,-94.2433,2.0,76.99736155,16.00025312,-99999.0,'11111222,11111222,99999999' 
TABS,ioos:station:wmo:42050:1,2007-09-03T20:30:00Z,28.8425,-94.2433,2.0,65.01246136,12.99648029,-99999.0,'11111222,11111222,99999999' 
TABS,ioos:station:wmo:42050:1,2007-09-03T21:00:00Z,28.8425,-94.2433,2.0,71.98330325,12.99730741,-99999.0,'11111222,11111222,99999999' 
TABS,ioos:station:wmo:42050:1,2007-09-03T21:30:00Z,28.8425,-94.2433,2.0,65.01246136,12.99648029,-99999.0,'11111222,11111222,99999999' 
TABS,ioos:station:wmo:42050:1,2007-09-03T22:00:00Z,28.8425,-94.2433,2.0,63.00807663,15.00443268,-99999.0,'11111222,11111222,99999999' 
TABS,ioos:station:wmo:42050:1,2007-09-03T22:30:00Z,28.8425,-94.2433,2.0,52.98429237,10.99603565,-99999.0,'11111222,11111222,99999999' 
TABS,ioos:station:wmo:42050:1,2007-09-03T23:00:00Z,28.8425,-94.2433,2.0,42.00698022,13.00021538,-99999.0,'11111222,11111222,99999999' 
TABS,ioos:station:wmo:42050:1,2007-09-03T23:30:00Z,28.8425,-94.2433,2.0,58.97584556,12.99959999,-99999.0,'11111222,11111222,99999999' 
TABS,ioos:station:wmo:42050:1,2007-09-04T00:00:00Z,28.8425,-94.2433,2.0,78.01605865,13.00339956,-99999.0,'11111222,11111222,99999999' 
TABS,ioos:station:wmo:42050:1,2007-09-04T00:30:00Z,28.8425,-94.2433,2.0,90.0,9.0,-99999.0,'11133222,11111222,99999999' 
TABS,ioos:station:wmo:42050:1,2007-09-04T01:00:00Z,28.8425,-94.2433,2.0,67.99398582,12.99689963,-99999.0,'11111222,11111222,99999999' 
TABS,ioos:station:wmo:42050:1,2007-09-04T01:30:00Z,28.8425,-94.2433,2.0,90.0,12.0,-99999.0,'11111222,11111222,99999999' 
TABS,ioos:station:wmo:42050:1,2007-09-04T02:00:00Z,28.8425,-94.2433,2.0,101.0009114,12.00052082,-99999.0,'11111222,11111222,99999999' 
TABS,ioos:station:wmo:42050:1,2007-09-04T02:30:00Z,28.8425,-94.2433,2.0,114.0031341,10.00522364,-99999.0,'11111222,11111222,99999999' 
TABS,ioos:station:wmo:42050:1,2007-09-04T03:00:00Z,28.8425,-94.2433,2.0,116.99874,12.9963995,-99999.0,'11111222,11111222,99999999' 
TABS,ioos:station:wmo:42050:1,2007-09-04T03:30:00Z,28.8425,-94.2433,2.0,212.982104,11.00331768,-99999.0,'11111222,11111222,99999999' 
TABS,ioos:station:wmo:42050:1,2007-09-04T04:00:00Z,28.8425,-94.2433,2.0,140.0142839,11.0022634,-99999.0,'11111222,11111222,99999999' 
TABS,ioos:station:wmo:42050:1,2007-09-04T04:30:00Z,28.8425,-94.2433,2.0,146.0052509,12.00110828,-99999.0,'11111222,11111222,99999999' 
TABS,ioos:station:wmo:42050:1,2007-09-04T05:00:00Z,28.8425,-94.2433,2.0,152.0155153,13.00001538,-99999.0,'11111222,11111222,99999999' 
TABS,ioos:station:wmo:42050:1,2007-09-04T05:30:00Z,28.8425,-94.2433,2.0,155.9985647,11.99733304,-99999.0,'11111222,11111222,99999999' 
TABS,ioos:station:wmo:42050:1,2007-09-04T06:00:00Z,28.8425,-94.2433,2.0,151.9610765,7.998824914,-99999.0,'11133222,11111222,99999999' 
TABS,ioos:station:wmo:42050:1,2007-09-04T06:30:00Z,28.8425,-94.2433,2.0,157.9857336,8.003524224,-99999.0,'11133222,11111222,99999999' 
TABS,ioos:station:wmo:42050:1,2007-09-04T07:00:00Z,28.8425,-94.2433,2.0,150.0182203,6.003332408,-99999.0,'11133222,11111222,99999999' 
TABS,ioos:station:wmo:42050:1,2007-09-04T07:30:00Z,28.8425,-94.2433,2.0,155.0348215,4.004122875,-99999.0,'11133222,11111222,99999999' 
TABS,ioos:station:wmo:42050:1,2007-09-04T08:00:00Z,28.8425,-94.2433,2.0,200.0643741,3.002215848,-99999.0,'11133222,11111222,99999999' 
TABS,ioos:station:wmo:42050:1,2007-09-04T08:30:00Z,28.8425,-94.2433,2.0,207.0774776,1.999124809,-99999.0,'11133222,11111222,99999999' 
TABS,ioos:station:wmo:42050:1,2007-09-04T09:00:00Z,28.8425,-94.2433,2.0,90.0,1.0,-99999.0,'11133222,11111222,99999999' 
TABS,ioos:station:wmo:42050:1,2007-09-04T09:30:00Z,28.8425,-94.2433,2.0,0.000210459,1.0,-99999.0,'11133222,11111222,99999999' 
TABS,ioos:station:wmo:42050:1,2007-09-04T10:00:00Z,28.8425,-94.2433,2.0,315.0003157,1.004091629,-99999.0,'11133222,11111222,99999999' 
TABS,ioos:station:wmo:42050:1,2007-09-04T10:30:00Z,28.8425,-94.2433,2.0,0.0,0.0,-99999.0,'11133222,11111222,99999999' 
TABS,ioos:station:wmo:42050:1,2007-09-04T11:00:00Z,28.8425,-94.2433,2.0,0.000210459,3.0,-99999.0,'11133222,11111222,99999999' 
TABS,ioos:station:wmo:42050:1,2007-09-04T11:30:00Z,28.8425,-94.2433,2.0,27.07789854,1.999124809,-99999.0,'11133222,11111222,99999999' 
TABS,ioos:station:wmo:42050:1,2007-09-04T12:00:00Z,28.8425,-94.2433,2.0,15.07930917,3.997649309,-99999.0,'11133222,11111222,99999999' 
TABS,ioos:station:wmo:42050:1,2007-09-04T12:30:00Z,28.8425,-94.2433,2.0,27.00423801,7.003570518,-99999.0,'11133222,11111222,99999999' 
TABS,ioos:station:wmo:42050:1,2007-09-04T13:00:00Z,28.8425,-94.2433,2.0,31.99539949,6.00170809,-99999.0,'11133222,11111222,99999999' 
TABS,ioos:station:wmo:42050:1,2007-09-04T13:30:00Z,28.8425,-94.2433,2.0,29.99370736,8.001556099,-99999.0,'11133222,11111222,99999999' 
TABS,ioos:station:wmo:42050:1,2007-09-04T14:00:00Z,28.8425,-94.2433,2.0,24.00334458,10.00522364,-99999.0,'11111222,11111222,99999999' 
TABS,ioos:station:wmo:42050:1,2007-09-04T14:30:00Z,28.8425,-94.2433,2.0,23.00049269,11.00485802,-99999.0,'11111222,11111222,99999999' 
TABS,ioos:station:wmo:42050:1,2007-09-04T15:00:00Z,28.8425,-94.2433,2.0,24.00334458,10.00522364,-99999.0,'11111222,11111222,99999999' 
TABS,ioos:station:wmo:42050:1,2007-09-04T15:30:00Z,28.8425,-94.2433,2.0,39.00416621,12.99701504,-99999.0,'11111222,11111222,99999999' 
TABS,ioos:station:wmo:42050:1,2007-09-04T16:00:00Z,28.8425,-94.2433,2.0,45.00010523,11.00258152,-99999.0,'11111222,11111222,99999999' 
TABS,ioos:station:wmo:42050:1,2007-09-04T16:30:00Z,28.8425,-94.2433,2.0,53.93067445,2.004195599,-99999.0,'11133222,11111222,99999999' 
TABS,ioos:station:wmo:42050:1,2007-09-04T17:00:00Z,28.8425,-94.2433,2.0,50.01449437,11.0022634,-99999.0,'11111222,11111222,99999999' 
TABS,ioos:station:wmo:42050:1,2007-09-04T17:30:00Z,28.8425,-94.2433,2.0,58.95987805,8.99853877,-99999.0,'11133222,11111222,99999999' 
TABS,ioos:station:wmo:42050:1,2007-09-04T18:00:00Z,28.8425,-94.2433,2.0,67.97520557,9.999769997,-99999.0,'11133222,11111222,99999999' 
TABS,ioos:station:wmo:42050:1,2007-09-04T18:30:00Z,28.8425,-94.2433,2.0,75.01060486,6.998121176,-99999.0,'11133222,11111222,99999999' 
TABS,ioos:station:wmo:42050:1,2007-09-04T19:00:00Z,28.8425,-94.2433,2.0,64.97327111,6.996942189,-99999.0,'11133222,11111222,99999999' 
TABS,ioos:station:wmo:42050:1,2007-09-04T19:30:00Z,28.8425,-94.2433,2.0,76.9892997,7.995254843,-99999.0,'11133222,11111222,99999999' 
TABS,ioos:station:wmo:42050:1,2007-09-04T20:00:00Z,28.8425,-94.2433,2.0,58.95987805,8.99853877,-99999.0,'11133222,11111222,99999999' 
TABS,ioos:station:wmo:42050:1,2007-09-04T20:30:00Z,28.8425,-94.2433,2.0,50.00494375,11.99584095,-99999.0,'11111222,11111222,99999999' 
TABS,ioos:station:wmo:42050:1,2007-09-04T21:00:00Z,28.8425,-94.2433,2.0,49.95813498,8.999788886,-99999.0,'11133222,11111222,99999999' 
TABS,ioos:station:wmo:42050:1,2007-09-04T21:30:00Z,28.8425,-94.2433,2.0,45.00010523,11.00258152,-99999.0,'11111222,11111222,99999999' 
TABS,ioos:station:wmo:42050:1,2007-09-04T22:00:00Z,28.8425,-94.2433,2.0,32.98397124,9.000694418,-99999.0,'11133222,11111222,99999999' 
TABS,ioos:station:wmo:42050:1,2007-09-04T22:30:00Z,28.8425,-94.2433,2.0,35.00495042,10.99982727,-99999.0,'11111222,11111222,99999999' 
TABS,ioos:station:wmo:42050:1,2007-09-04T23:00:00Z,28.8425,-94.2433,2.0,24.00290423,13.00455689,-99999.0,'11111222,11111222,99999999' 
TABS,ioos:station:wmo:42050:1,2007-09-04T23:30:00Z,28.8425,-94.2433,2.0,19.98632896,16.00382767,-99999.0,'11111222,11111222,99999999' 
TABS,ioos:station:wmo:42050:1,2007-09-05T00:00:00Z,28.8425,-94.2433,2.0,21.02121591,14.99814655,-99999.0,'11111222,11111222,99999999' 
TABS,ioos:station:wmo:42050:1,2007-09-05T00:30:00Z,28.8425,-94.2433,2.0,8.984272929,12.99948076,-99999.0,'11111222,11111222,99999999' 
TABS,ioos:station:wmo:42050:1,2007-09-05T01:00:00Z,28.8425,-94.2433,2.0,5.981700857,11.99530742,-99999.0,'11111222,11111222,99999999' 
TABS,ioos:station:wmo:42050:1,2007-09-05T01:30:00Z,28.8425,-94.2433,2.0,14.0165647,13.99673176,-99999.0,'11111222,11111222,99999999' 
TABS,ioos:station:wmo:42050:1,2007-09-05T02:00:00Z,28.8425,-94.2433,2.0,17.01866372,11.0017635,-99999.0,'11111222,11111222,99999999' 
TABS,ioos:station:wmo:42050:1,2007-09-05T02:30:00Z,28.8425,-94.2433,2.0,12.00689069,9.998739921,-99999.0,'11133222,11111222,99999999' 
TABS,ioos:station:wmo:42050:1,2007-09-05T03:00:00Z,28.8425,-94.2433,2.0,0.000210459,11.0,-99999.0,'11111222,11111222,99999999' 
TABS,ioos:station:wmo:42050:1,2007-09-05T03:30:00Z,28.8425,-94.2433,2.0,12.00689069,9.998739921,-99999.0,'11133222,11111222,99999999' 
TABS,ioos:station:wmo:42050:1,2007-09-05T04:00:00Z,28.8425,-94.2433,2.0,0.000210459,9.0,-99999.0,'11133222,11111222,99999999' 
TABS,ioos:station:wmo:42050:1,2007-09-05T04:30:00Z,28.8425,-94.2433,2.0,353.9762315,8.004198898,-99999.0,'11133222,11111222,99999999' 
TABS,ioos:station:wmo:42050:1,2007-09-05T05:00:00Z,28.8425,-94.2433,2.0,353.0274575,7.001785487,-99999.0,'11133222,11111222,99999999' 
TABS,ioos:station:wmo:42050:1,2007-09-05T05:30:00Z,28.8425,-94.2433,2.0,0.000210459,8.0,-99999.0,'11133222,11111222,99999999' 
TABS,ioos:station:wmo:42050:1,2007-09-05T06:00:00Z,28.8425,-94.2433,2.0,349.9723251,4.996328652,-99999.0,'11133222,11111222,99999999' 
TABS,ioos:station:wmo:42050:1,2007-09-05T06:30:00Z,28.8425,-94.2433,2.0,10.95424749,5.999308293,-99999.0,'11133222,11111222,99999999' 